Regional Weather Roundup
Issued by NWS Charleston, SC

Current Version | Previous Version | Graphics & Text | Print | Product List | Glossary On
Versions: 1 2 3 4 5 6 7 8 9 10 11 12 13 14 15 16 17 18 19 20 21 22 23 24 25 26 27 28 29 30 31 32 33 34 35 36 37 38 39 40 41 42 43 44 45 46 47 48 49 50
000
ASUS42 KCHS 250212
RWRCHS

REGIONAL WEATHER ROUNDUP
NATIONAL WEATHER SERVICE CHARLESTON SC
1000 PM EDT FRI APR 24 2015

NOTE: "FAIR" INDICATES FEW OR NO CLOUDS BELOW 12,000 FEET WITH NO
SIGNIFICANT WEATHER AND/OR OBSTRUCTIONS TO VISIBILITY.

NOT ALL STATIONS ARE QUALITY CONTROLLED BY THE NATIONAL
WEATHER SERVICE. USE DATA WITH CAUTION...ESPECIALLY
DEWPOINT OBSERVATIONS.

SCZ027-030-031-034>040-042>050-250300-
...SOUTHEAST SOUTH CAROLINA...

CITY           SKY/WX    TMP DP  RH WIND       PRES   REMARKS
N CHARLESTON   MOCLDY    58  45  62 S3        30.03R
WATERFRONT PRK   N/A     64 N/A N/A S6          N/A
MOUNT PLEASANT FAIR      55  46  71 MISG      30.03S
PINOPOLIS      NOT AVBL
MONCKS CORNER  FAIR      55  46  71 CALM      30.03R
SUMMERVILLE    FAIR      57  48  72 CALM      30.03S
BEAUFORT MCAS  CLOUDY    63  49  60 S3        30.01F
BEAUFORT ARPT  FAIR      63  50  63 CALM      30.02S
HILTON HEAD IS CLOUDY    64  46  52 SE3       30.03F
WALTERBORO     MOCLDY    59  46  63 S3        30.03S
ALLENDALE      FAIR      64  46  52 SE6       30.00S

...SOUTHERN MIDLANDS AND PEE DEE...

CITY           SKY/WX    TMP DP  RH WIND       PRES   REMARKS
GEORGETOWN     NOT AVBL
KINGSTREE      NOT AVBL
ORANGEBURG     PTCLDY    59  45  59 S5        30.01R
BARNWELL       FAIR      64  46  52 S6        30.00S
AIKEN          FAIR      59  41  51 SE5       30.01F
MANNING        FAIR      54  36  50 CALM      30.01R
COLUMBIA       PTCLDY    58  45  62 CALM      29.98S
SUMTER         MOCLDY    61  44  54 SW2       29.98R
FLORENCE       MOCLDY    59  43  55 S3        30.00S
MYRTLE BEACH   CLEAR     61  41  48 SW7       30.04S
N MYRTLE BEACH CLEAR     58  46  64 SW5       30.02S

$$

GAZ063-065-086>088-099>101-113>116-118-119-134>141-150-250300-
...SOUTHEAST GEORGIA...

CITY           SKY/WX    TMP DP  RH WIND       PRES   REMARKS
SAVANNAH ARPT  CLOUDY    64  46  52 SE8       30.01F
HUNTER AAF     CLOUDY    64  49  58 E7        29.98F
FORT STEWART   CLOUDY    62  50  63 SE2       29.98F
STATESBORO       N/A     63  48  57 SE3       29.99F
SYLVANIA       CLOUDY    63  49  59 CALM      30.01S
CLAXTON        FAIR      63  50  63 SE3       30.00S

...CSRA...CENTRAL AND FAR SOUTHEAST GEORGIA...

CITY           SKY/WX    TMP DP  RH WIND       PRES   REMARKS
THOMSON        CLOUDY    65  55  71 CALM      30.01F
AUGUSTA-BUSH   CLOUDY    60  49  66 CALM      29.97F
AUGUSTA-DANIEL CLOUDY    69  38  32 S6        29.98S
SWAINSBORO     NOT AVBL
VIDALIA        MOCLDY    66  50  55 SE8       29.99R
EASTMAN        FAIR      67  61  78 CALM      29.99R
HAZLEHURST     FAIR      69  53  55 SE6       29.97R
ALMA           MOCLDY    66  51  58 SE7       29.97F
WAYCROSS       CLOUDY    69  55  59 SE8       29.98F
JESUP          FAIR      66  54  63 S3        30.00S
BAXLEY         FAIR      68  52  56 SE7       29.98S
BRUNSWICK      CLOUDY    66  52  59 SE3       30.02R
SAINT SIMONS   CLOUDY    66  54  65 E8        30.01S

$$

SCZ027-028-034-036>038-045-046-048>050-GAZ119-141-250300-
...LAKE AND SUPPLEMENTAL COASTAL OBSERVATIONS...

STATION/POSITION TIME  TEMP    WIND        PRES    WAVE   SWELL
                       AIR SEA DIR/SP/G            HT/PER HT/PER/DIR
                 (UTC) (F)     (DEG/KT/KT) (MB)    (FT/S) (FT/S/D)
UPR LAKE MARION  NOT AVBL
WINYAH BAY       NOT AVBL
LAKE MURRAY      0100   63        CALM     1014.9S
ACE BASIN NERRS  NOT AVBL
FORT PULASKI     0100   64 71  130/  3/  5 1017.1F
SAPELO ISLAND    0100   63     100/  3     1016.0F

$$

ANZ835-935-AMZ111-154-330-350-352-354-370-450-454-472-250300-
...C-MAN AND BUOY OBSERVATIONS...

STATION/POSITION TIME  TEMP    WIND        PRES    WAVE   SWELL
                       AIR SEA DIR/SP/G            HT/PER HT/PER/DIR
                 (UTC) (F)     (DEG/KT/KT) (MB)    (FT/S) (FT/S/D)
BUOY 41004       0150   66 71  180/  8/ 10 1017.0R   4/ 8   3/ 8
BUOY 41008       0150   67 69  100/ 12/ 14 1016.2F   4/ 7   3/ 60/ 7
FOLLY BEACH CMAN 0100   65     180/ 10/ 11 1016.9F
CAPERS NEARSHORE 0108   65     200/ 10/ 14   N/A
FRIPP NEARSHORE  0100   66     180/ 10/ 12 1016.4F


STATION/POSITION TIME  TEMP    WIND        PRES    WAVE   SWELL
                       AIR SEA DIR/SP/G            HT/PER HT/PER/DIR
                 (UTC) (F)     (DEG/KT/KT) (MB)    (FT/S) (FT/S/D)
5E ST. MARYS GA  0121      69                N/A     4/ 7   2/100/13
FRYING PAN BUOY  0150   65 71  210/  8/ 14 1017.5R   4/ 8   3/ 80/ 8
BUOY 41025       0150   60 73  220/  4/ 10 1015.6R   5/ 9   5/ 70/ 9
CAPE LOOKOUT NC  0100   61     250/ 10/ 12 1015.1R
BUOY 41002       0150   63 70  350/  8/ 12 1017.2R   6/ 8   7/350/ 8
BUOY 41010       0120   76 78   50/ 10/ 14 1015.9R
ST AUGUSTINE FL  0200   69 67   30/  6/  7 1016.9R


$$


USA.gov is the U.S. government's official web portal to all federal, state and local government web resources and services.